Time,TemperatureF,DewpointF,PressureIn,WindDirection,WindDirectionDegrees,WindSpeedMPH,WindSpeedGustMPH,Humidity,HourlyPrecipIn,Conditions,Clouds,dailyrainin,SoftwareType,DateUTC
2013-01-14 00:04:00,56.0,55.0,30.11,South,171,0.0,1.0,97,0.00,,,0.00,,2013-01-14 05:04:00,
2013-01-14 00:12:00,56.0,55.0,30.11,South,171,0.0,1.0,97,0.00,,,0.00,,2013-01-14 05:12:00,
2013-01-14 00:22:00,56.0,55.0,30.10,SE,132,1.0,3.0,97,0.00,,,0.00,,2013-01-14 05:22:00,
2013-01-14 00:33:00,56.0,55.0,30.09,ESE,119,2.0,2.0,97,0.00,,,0.00,,2013-01-14 05:33:00,
2013-01-14 00:42:00,56.0,55.0,30.09,ESE,119,2.0,2.0,97,0.00,,,0.00,,2013-01-14 05:42:00,
2013-01-14 00:53:00,57.0,56.0,30.10,South,169,1.0,2.0,97,0.00,,,0.00,,2013-01-14 05:53:00,
2013-01-14 01:03:00,56.0,55.0,30.10,SSW,211,0.0,2.0,97,0.00,,,0.00,,2013-01-14 06:03:00,
2013-01-14 01:12:00,56.0,55.0,30.10,SSW,211,0.0,2.0,97,0.00,,,0.00,,2013-01-14 06:12:00,
2013-01-14 01:22:00,57.0,56.0,30.11,SSW,211,1.0,2.0,97,0.00,,,0.00,,2013-01-14 06:22:00,
2013-01-14 01:33:00,57.0,56.0,30.11,SSW,211,0.0,2.0,97,0.00,,,0.00,,2013-01-14 06:33:00,
2013-01-14 01:43:00,57.0,56.0,30.11,SSW,211,0.0,2.0,97,0.00,,,0.00,,2013-01-14 06:43:00,
2013-01-14 01:53:00,57.0,56.0,30.11,SSW,211,0.0,2.0,97,0.00,,,0.00,,2013-01-14 06:53:00,
2013-01-14 02:02:00,58.0,57.0,30.11,South,188,0.0,3.0,97,0.00,,,0.00,,2013-01-14 07:02:00,
2013-01-14 02:12:00,58.0,57.0,30.11,South,188,0.0,3.0,97,0.00,,,0.00,,2013-01-14 07:12:00,
2013-01-14 02:23:00,58.0,57.0,30.11,South,188,0.0,1.0,97,0.00,,,0.00,,2013-01-14 07:23:00,
2013-01-14 02:33:00,58.0,57.0,30.12,SW,223,1.0,3.0,97,0.00,,,0.00,,2013-01-14 07:33:00,
2013-01-14 02:42:00,58.0,57.0,30.12,SW,223,1.0,3.0,97,0.00,,,0.00,,2013-01-14 07:42:00,
2013-01-14 02:53:00,59.0,58.0,30.12,SSW,197,2.0,4.0,97,0.01,,,0.01,,2013-01-14 07:53:00,
2013-01-14 03:02:00,59.0,58.0,30.12,WSW,248,2.0,4.0,97,0.01,,,0.01,,2013-01-14 08:02:00,
2013-01-14 03:12:00,59.0,58.0,30.12,WSW,248,2.0,4.0,97,0.01,,,0.01,,2013-01-14 08:12:00,
2013-01-14 03:22:00,58.0,57.0,30.14,NW,318,3.0,4.0,97,0.01,,,0.01,,2013-01-14 08:22:00,
2013-01-14 03:33:00,58.0,57.0,30.13,NW,307,0.0,2.0,97,0.02,,,0.02,,2013-01-14 08:33:00,
2013-01-14 03:42:00,58.0,57.0,30.13,NW,307,0.0,2.0,97,0.02,,,0.02,,2013-01-14 08:42:00,
2013-01-14 03:53:00,58.0,57.0,30.12,SE,129,1.0,3.0,98,0.03,,,0.04,,2013-01-14 08:53:00,
2013-01-14 04:02:00,58.0,57.0,30.11,SE,129,2.0,3.0,98,0.03,,,0.04,,2013-01-14 09:02:00,
2013-01-14 04:12:00,58.0,57.0,30.11,SE,129,2.0,3.0,98,0.03,,,0.04,,2013-01-14 09:12:00,
2013-01-14 04:23:00,58.0,57.0,30.11,SSE,159,2.0,3.0,98,0.04,,,0.05,,2013-01-14 09:23:00,
2013-01-14 04:33:00,58.0,57.0,30.10,NE,49,1.0,2.0,98,0.03,,,0.05,,2013-01-14 09:33:00,
2013-01-14 04:43:00,58.0,57.0,30.10,NE,49,1.0,2.0,98,0.03,,,0.05,,2013-01-14 09:43:00,
2013-01-14 04:53:00,58.0,57.0,30.10,SE,124,1.0,2.0,98,0.01,,,0.05,,2013-01-14 09:53:00,
2013-01-14 05:02:00,58.0,57.0,30.10,SSE,155,2.0,3.0,98,0.01,,,0.05,,2013-01-14 10:02:00,
2013-01-14 05:12:00,58.0,57.0,30.10,SSE,155,2.0,3.0,98,0.01,,,0.05,,2013-01-14 10:12:00,
2013-01-14 05:23:00,58.0,57.0,30.10,SSE,165,1.0,3.0,98,0.00,,,0.05,,2013-01-14 10:23:00,
2013-01-14 05:32:00,58.0,57.0,30.09,SE,132,3.0,5.0,98,0.00,,,0.05,,2013-01-14 10:32:00,
2013-01-14 05:42:00,58.0,57.0,30.09,SE,132,3.0,5.0,98,0.00,,,0.05,,2013-01-14 10:42:00,
2013-01-14 05:53:00,58.0,57.0,30.09,ESE,108,1.0,2.0,98,0.00,,,0.05,,2013-01-14 10:53:00,
2013-01-14 06:02:00,58.0,57.0,30.09,South,171,1.0,4.0,98,0.00,,,0.05,,2013-01-14 11:02:00,
2013-01-14 06:12:00,58.0,57.0,30.09,South,171,1.0,4.0,98,0.00,,,0.05,,2013-01-14 11:12:00,
2013-01-14 06:22:00,58.0,57.0,30.10,SSE,159,1.0,4.0,98,0.00,,,0.05,,2013-01-14 11:22:00,
2013-01-14 06:33:00,58.0,57.0,30.10,SSE,159,0.0,1.0,98,0.01,,,0.06,,2013-01-14 11:33:00,
2013-01-14 06:43:00,58.0,57.0,30.10,SSE,159,0.0,1.0,98,0.01,,,0.06,,2013-01-14 11:43:00,
2013-01-14 06:53:00,58.0,57.0,30.10,SSW,196,1.0,2.0,98,0.01,,,0.06,,2013-01-14 11:53:00,
2013-01-14 07:03:00,58.0,58.0,30.11,SSE,156,0.0,2.0,99,0.01,,,0.06,,2013-01-14 12:03:00,
2013-01-14 07:12:00,58.0,58.0,30.11,SSE,156,0.0,2.0,99,0.01,,,0.06,,2013-01-14 12:12:00,
2013-01-14 07:23:00,58.0,58.0,30.11,SSE,156,1.0,2.0,99,0.01,,,0.06,,2013-01-14 12:23:00,
2013-01-14 07:33:00,58.0,58.0,30.11,SSE,163,0.0,2.0,99,0.00,,,0.06,,2013-01-14 12:33:00,
2013-01-14 07:43:00,58.0,58.0,30.11,SSE,163,0.0,2.0,99,0.00,,,0.06,,2013-01-14 12:43:00,
2013-01-14 07:53:00,58.0,58.0,30.12,SSE,163,0.0,1.0,99,0.00,,,0.06,,2013-01-14 12:53:00,
2013-01-14 08:03:00,58.0,58.0,30.12,SSE,163,0.0,1.0,99,0.00,,,0.06,,2013-01-14 13:03:00,
2013-01-14 08:12:00,58.0,58.0,30.12,SSE,163,0.0,1.0,99,0.00,,,0.06,,2013-01-14 13:12:00,
2013-01-14 08:23:00,58.0,58.0,30.13,SSE,163,1.0,1.0,99,0.00,,,0.06,,2013-01-14 13:23:00,
2013-01-14 08:33:00,58.0,58.0,30.13,SSE,163,0.0,1.0,99,0.00,,,0.06,,2013-01-14 13:33:00,
2013-01-14 08:43:00,58.0,58.0,30.13,SSE,163,0.0,1.0,99,0.00,,,0.06,,2013-01-14 13:43:00,
2013-01-14 08:53:00,58.0,58.0,30.13,SSE,163,0.0,1.0,99,0.00,,,0.06,,2013-01-14 13:53:00,
2013-01-14 09:03:00,59.0,59.0,30.13,SSW,194,1.0,2.0,99,0.01,,,0.07,,2013-01-14 14:03:00,
2013-01-14 09:13:00,59.0,59.0,30.13,SSW,194,1.0,2.0,99,0.01,,,0.07,,2013-01-14 14:13:00,
2013-01-14 09:23:00,59.0,59.0,30.14,SSW,193,1.0,3.0,99,0.01,,,0.07,,2013-01-14 14:23:00,
2013-01-14 09:33:00,59.0,59.0,30.14,South,182,2.0,4.0,99,0.01,,,0.07,,2013-01-14 14:33:00,
2013-01-14 09:43:00,59.0,59.0,30.14,South,182,2.0,4.0,99,0.01,,,0.07,,2013-01-14 14:43:00,
2013-01-14 09:53:00,59.0,59.0,30.14,SSE,151,2.0,3.0,99,0.01,,,0.07,,2013-01-14 14:53:00,
2013-01-14 10:03:00,59.0,59.0,30.15,WSW,238,1.0,3.0,99,0.00,,,0.07,,2013-01-14 15:03:00,
2013-01-14 10:12:00,59.0,59.0,30.15,WSW,238,1.0,3.0,99,0.00,,,0.07,,2013-01-14 15:12:00,
2013-01-14 10:23:00,59.0,59.0,30.14,SSW,196,1.0,3.0,99,0.00,,,0.07,,2013-01-14 15:23:00,
2013-01-14 10:33:00,59.0,59.0,30.15,SSW,194,2.0,3.0,99,0.00,,,0.07,,2013-01-14 15:33:00,
2013-01-14 10:43:00,59.0,59.0,30.15,SSW,194,2.0,3.0,99,0.00,,,0.07,,2013-01-14 15:43:00,
2013-01-14 10:53:00,60.0,60.0,30.15,SSW,194,1.0,3.0,99,0.01,,,0.08,,2013-01-14 15:53:00,
2013-01-14 11:03:00,60.0,60.0,30.15,SSW,194,1.0,3.0,99,0.01,,,0.08,,2013-01-14 16:03:00,
2013-01-14 11:13:00,60.0,60.0,30.15,SSW,194,1.0,3.0,99,0.01,,,0.08,,2013-01-14 16:13:00,
2013-01-14 11:23:00,60.0,60.0,30.15,SSW,194,2.0,3.0,99,0.02,,,0.09,,2013-01-14 16:23:00,
2013-01-14 11:33:00,60.0,60.0,30.14,SW,231,2.0,3.0,99,0.02,,,0.10,,2013-01-14 16:33:00,
2013-01-14 11:43:00,60.0,60.0,30.14,SW,231,2.0,3.0,99,0.02,,,0.10,,2013-01-14 16:43:00,
2013-01-14 11:53:00,60.0,60.0,30.14,WSW,254,2.0,3.0,99,0.02,,,0.10,,2013-01-14 16:53:00,
2013-01-14 12:03:00,60.0,60.0,30.14,WSW,254,2.0,3.0,99,0.02,,,0.10,,2013-01-14 17:03:00,
2013-01-14 12:12:00,60.0,60.0,30.14,WSW,254,2.0,3.0,99,0.02,,,0.10,,2013-01-14 17:12:00,
2013-01-14 12:34:00,60.0,60.0,30.13,WSW,244,2.0,3.0,99,0.05,,,0.14,,2013-01-14 17:34:00,
2013-01-14 12:43:00,60.0,60.0,30.13,WSW,244,2.0,3.0,99,0.05,,,0.14,,2013-01-14 17:43:00,
2013-01-14 12:54:00,60.0,60.0,30.12,West,263,1.0,2.0,99,0.07,,,0.17,,2013-01-14 17:54:00,
2013-01-14 13:03:00,60.0,60.0,30.12,West,263,0.0,1.0,99,0.06,,,0.18,,2013-01-14 18:03:00,
2013-01-14 13:13:00,60.0,60.0,30.10,NNW,341,1.0,2.0,99,0.06,,,0.20,,2013-01-14 18:13:00,
2013-01-14 13:23:00,60.0,60.0,30.10,NNW,341,1.0,2.0,99,0.06,,,0.20,,2013-01-14 18:23:00,
2013-01-14 13:33:00,60.0,60.0,30.10,NNE,24,1.0,2.0,99,0.07,,,0.22,,2013-01-14 18:33:00,
2013-01-14 13:43:00,60.0,60.0,30.10,NNE,24,1.0,2.0,99,0.07,,,0.22,,2013-01-14 18:43:00,
2013-01-14 13:53:00,60.0,60.0,30.10,North,360,1.0,2.0,99,0.07,,,0.23,,2013-01-14 18:53:00,
2013-01-14 14:03:00,58.0,57.0,30.11,NNW,344,1.0,3.0,98,0.07,,,0.25,,2013-01-14 19:03:00,
2013-01-14 14:13:00,58.0,57.0,30.11,NNW,344,1.0,3.0,98,0.07,,,0.25,,2013-01-14 19:13:00,
2013-01-14 14:22:00,58.0,57.0,30.11,NNE,27,1.0,2.0,98,0.07,,,0.26,,2013-01-14 19:22:00,
2013-01-14 14:33:00,58.0,57.0,30.11,North,355,1.0,4.0,98,0.05,,,0.27,,2013-01-14 19:33:00,
2013-01-14 14:43:00,58.0,57.0,30.11,North,355,1.0,4.0,98,0.05,,,0.27,,2013-01-14 19:43:00,
2013-01-14 14:52:00,57.0,56.0,30.11,NNE,29,1.0,2.0,98,0.06,,,0.29,,2013-01-14 19:52:00,
2013-01-14 15:03:00,57.0,56.0,30.11,ENE,63,1.0,2.0,98,0.08,,,0.33,,2013-01-14 20:03:00,
2013-01-14 15:13:00,57.0,56.0,30.11,ENE,63,1.0,2.0,98,0.08,,,0.33,,2013-01-14 20:13:00,
2013-01-14 15:23:00,57.0,56.0,30.12,NNE,22,1.0,3.0,98,0.11,,,0.37,,2013-01-14 20:23:00,
2013-01-14 15:33:00,57.0,56.0,30.12,NNE,22,1.0,3.0,98,0.11,,,0.37,,2013-01-14 20:33:00,
2013-01-14 15:43:00,57.0,56.0,30.12,NNE,22,1.0,3.0,98,0.11,,,0.37,,2013-01-14 20:43:00,
2013-01-14 15:53:00,56.0,55.0,30.12,NE,40,1.0,2.0,98,0.21,,,0.50,,2013-01-14 20:53:00,
2013-01-14 16:03:00,56.0,55.0,30.13,NE,43,0.0,2.0,98,0.23,,,0.56,,2013-01-14 21:03:00,
2013-01-14 16:13:00,56.0,55.0,30.13,NE,43,0.0,2.0,98,0.23,,,0.56,,2013-01-14 21:13:00,
2013-01-14 16:23:00,55.0,54.0,30.14,NW,323,1.0,2.0,98,0.26,,,0.64,,2013-01-14 21:23:00,
2013-01-14 16:33:00,55.0,54.0,30.14,NNW,340,2.0,5.0,98,0.24,,,0.66,,2013-01-14 21:33:00,
2013-01-14 16:43:00,55.0,54.0,30.14,NNW,340,2.0,5.0,98,0.24,,,0.66,,2013-01-14 21:43:00,
2013-01-14 16:53:00,55.0,54.0,30.14,ENE,58,2.0,3.0,98,0.29,,,0.79,,2013-01-14 21:53:00,
2013-01-14 17:03:00,55.0,54.0,30.14,NE,50,1.0,2.0,98,0.34,,,0.90,,2013-01-14 22:03:00,
2013-01-14 17:12:00,55.0,54.0,30.14,NE,50,1.0,2.0,98,0.34,,,0.90,,2013-01-14 22:12:00,
2013-01-14 17:23:00,55.0,54.0,30.14,ENE,57,1.0,4.0,98,0.35,,,0.99,,2013-01-14 22:23:00,
2013-01-14 17:33:00,55.0,54.0,30.14,SSE,159,1.0,3.0,98,0.38,,,1.07,,2013-01-14 22:33:00,
2013-01-14 17:43:00,55.0,54.0,30.14,SSE,159,1.0,3.0,98,0.38,,,1.07,,2013-01-14 22:43:00,
2013-01-14 17:53:00,55.0,54.0,30.15,NNW,335,2.0,4.0,98,0.34,,,1.10,,2013-01-14 22:53:00,
2013-01-14 18:03:00,55.0,54.0,30.14,NE,51,0.0,3.0,98,0.21,,,1.11,,2013-01-14 23:03:00,
2013-01-14 18:12:00,55.0,54.0,30.14,NE,51,0.0,3.0,98,0.21,,,1.11,,2013-01-14 23:12:00,
2013-01-14 18:23:00,55.0,54.0,30.15,WNW,287,1.0,4.0,98,0.15,,,1.14,,2013-01-14 23:23:00,
2013-01-14 18:33:00,56.0,55.0,30.14,NE,44,2.0,4.0,98,0.13,,,1.20,,2013-01-14 23:33:00,
2013-01-14 18:43:00,56.0,55.0,30.14,NE,44,2.0,4.0,98,0.13,,,1.20,,2013-01-14 23:43:00,
2013-01-14 18:53:00,56.0,56.0,30.16,NNE,24,1.0,7.0,99,0.11,,,1.22,,2013-01-14 23:53:00,
2013-01-14 19:03:00,56.0,56.0,30.16,NNE,32,1.0,3.0,99,0.12,,,1.23,,2013-01-15 00:03:00,
2013-01-14 19:12:00,56.0,56.0,30.16,NNE,32,1.0,3.0,99,0.12,,,1.23,,2013-01-15 00:12:00,
2013-01-14 19:23:00,56.0,56.0,30.17,NW,306,4.0,6.0,99,0.13,,,1.28,,2013-01-15 00:23:00,
2013-01-14 19:33:00,56.0,56.0,30.15,NE,50,2.0,3.0,99,0.12,,,1.32,,2013-01-15 00:33:00,
2013-01-14 19:43:00,56.0,56.0,30.15,NE,50,2.0,3.0,99,0.12,,,1.32,,2013-01-15 00:43:00,
2013-01-14 19:53:00,56.0,56.0,30.16,North,360,1.0,2.0,99,0.10,,,1.32,,2013-01-15 00:53:00,
2013-01-14 20:02:00,57.0,57.0,30.15,NE,34,1.0,2.0,99,0.11,,,1.35,,2013-01-15 01:02:00,
2013-01-14 20:12:00,57.0,57.0,30.15,ENE,69,1.0,5.0,99,0.10,,,1.38,,2013-01-15 01:12:00,
2013-01-14 20:22:00,57.0,57.0,30.15,ENE,69,1.0,5.0,99,0.10,,,1.38,,2013-01-15 01:22:00,
2013-01-14 20:32:00,57.0,57.0,30.15,ENE,77,1.0,3.0,99,0.07,,,1.39,,2013-01-15 01:32:00,
2013-01-14 20:43:00,57.0,57.0,30.15,ENE,77,1.0,3.0,99,0.07,,,1.39,,2013-01-15 01:43:00,
2013-01-14 20:52:00,57.0,57.0,30.14,NNE,28,0.0,3.0,99,0.08,,,1.40,,2013-01-15 01:52:00,
2013-01-14 21:02:00,57.0,57.0,30.14,East,80,1.0,3.0,99,0.05,,,1.40,,2013-01-15 02:02:00,
2013-01-14 21:12:00,57.0,57.0,30.14,East,80,1.0,3.0,99,0.05,,,1.40,,2013-01-15 02:12:00,
2013-01-14 21:23:00,56.0,56.0,30.14,South,172,1.0,1.0,99,0.06,,,1.44,,2013-01-15 02:23:00,
2013-01-14 21:33:00,56.0,56.0,30.14,ENE,77,1.0,2.0,99,0.07,,,1.46,,2013-01-15 02:33:00,
2013-01-14 21:42:00,56.0,56.0,30.14,ENE,77,1.0,2.0,99,0.07,,,1.46,,2013-01-15 02:42:00,
2013-01-14 21:53:00,56.0,56.0,30.16,NNW,346,3.0,7.0,99,0.20,,,1.60,,2013-01-15 02:53:00,
2013-01-14 22:02:00,54.0,53.0,30.14,NNE,31,3.0,6.0,97,0.25,,,1.65,,2013-01-15 03:02:00,
2013-01-14 22:12:00,54.0,53.0,30.14,NNE,31,3.0,6.0,97,0.25,,,1.65,,2013-01-15 03:12:00,
2013-01-14 22:22:00,53.0,52.0,30.17,NNW,331,3.0,6.0,97,0.26,,,1.70,,2013-01-15 03:22:00,
2013-01-14 22:33:00,52.0,51.0,30.17,North,5,2.0,5.0,97,0.35,,,1.83,,2013-01-15 03:33:00,
2013-01-14 22:42:00,52.0,51.0,30.17,North,5,2.0,5.0,97,0.35,,,1.83,,2013-01-15 03:42:00,
2013-01-14 22:53:00,51.0,50.0,30.20,North,5,1.0,7.0,97,0.32,,,1.92,,2013-01-15 03:53:00,
2013-01-14 23:02:00,51.0,50.0,30.20,NE,44,3.0,5.0,97,0.34,,,1.99,,2013-01-15 04:02:00,
2013-01-14 23:12:00,51.0,50.0,30.20,NE,44,3.0,5.0,97,0.34,,,1.99,,2013-01-15 04:12:00,
2013-01-14 23:22:00,51.0,50.0,30.20,NE,44,3.0,5.0,97,0.34,,,1.99,,2013-01-15 04:22:00,
2013-01-14 23:32:00,50.0,49.0,30.20,NNE,30,1.0,4.0,97,0.30,,,2.14,,2013-01-15 04:32:00,
2013-01-14 23:42:00,50.0,49.0,30.20,NNE,30,1.0,4.0,97,0.30,,,2.14,,2013-01-15 04:42:00,
2013-01-14 23:52:00,50.0,49.0,30.21,ENE,75,3.0,5.0,97,0.28,,,2.20,,2013-01-15 04:52:00,